When you browse on this site, cookies collect data to enhance your experience and personalize the content and advertising you see.
Visit our Privacy Policy to learn more. By continuing to use the site, you agree to this use of cookies and data.
  • în România
  • Lista ţărilor
  • Pe 7 zile
  • Temperatura apei
  • Hartă satelitară
  • Meteo pe hartă
  • Widget-uri
  • user-avatar
    Intrare

    Meteo pe oră la Darłowo

    Astăzi, 24 Mai, Vineri

    Timp Temperatura Precipitaţii Vânt Presiune Umiditate
    00:00 +9°C° 0 mm 3 m/s 761 mmHg 90%
    01:00 +9°C° 0 mm 3 m/s 761 mmHg 90%
    02:00 +9°C° 0 mm 3 m/s 761 mmHg 89%
    03:00 +9°C° 0 mm 3 m/s 761 mmHg 88%
    04:00 +9°C° 0 mm 3 m/s 760 mmHg 87%
    05:00 +10°C° 0 mm 3 m/s 760 mmHg 82%
    06:00 +12°C° 0 mm 3 m/s 760 mmHg 76%
    07:00 +13°C° 0 mm 3 m/s 760 mmHg 71%
    08:00 +16°C° 0 mm 3 m/s 760 mmHg 66%
    09:00 +17°C° 0 mm 3 m/s 760 mmHg 60%
    10:00 +19°C° 0 mm 3 m/s 760 mmHg 55%
    11:00 +20°C° 0 mm 3 m/s 760 mmHg 53%
    12:00 +20°C° 0 mm 3 m/s 759 mmHg 51%
    13:00 +21°C° 0 mm 4 m/s 759 mmHg 49%
    14:00 +21°C° 0 mm 4 m/s 758 mmHg 50%
    15:00 +21°C° 0 mm 4 m/s 758 mmHg 51%
    16:00 +21°C° 0 mm 4 m/s 757 mmHg 53%
    17:00 +20°C° 0 mm 3 m/s 757 mmHg 61%
    18:00 +18°C° 0 mm 2 m/s 757 mmHg 70%
    19:00 +18°C° 0 mm 1 m/s 757 mmHg 78%
    20:00 +16°C° 0 mm 2 m/s 757 mmHg 80%
    21:00 +14°C° 0 mm 3 m/s 756 mmHg 82%
    22:00 +13°C° 0 mm 3 m/s 756 mmHg 84%
    23:00 +13°C° 0 mm 3 m/s 756 mmHg 87%

    Mâine, 25 Mai, Sâmbătă

    Timp Temperatura Precipitaţii Vânt Presiune Umiditate
    00:00 +12°C° 0 mm 4 m/s 756 mmHg 89%
    01:00 +11°C° 0 mm 4 m/s 756 mmHg 92%
    02:00 +10°C° 0 mm 4 m/s 756 mmHg 93%
    03:00 +9°C° 0 mm 5 m/s 756 mmHg 94%
    04:00 +8°C° 0 mm 5 m/s 756 mmHg 96%
    05:00 +9°C° 0 mm 5 m/s 756 mmHg 91%
    06:00 +10°C° 0 mm 6 m/s 756 mmHg 87%
    07:00 +10°C° 0 mm 6 m/s 757 mmHg 82%
    08:00 +11°C° 0 mm 6 m/s 757 mmHg 81%
    09:00 +11°C° 0 mm 7 m/s 757 mmHg 79%
    10:00 +11°C° 0 mm 7 m/s 757 mmHg 77%
    11:00 +11°C° 0 mm 7 m/s 757 mmHg 78%
    12:00 +11°C° 0 mm 7 m/s 757 mmHg 78%
    13:00 +11°C° 0 mm 7 m/s 757 mmHg 79%
    14:00 +12°C° 0 mm 7 m/s 757 mmHg 77%
    15:00 +12°C° 0 mm 7 m/s 757 mmHg 74%
    16:00 +14°C° 0 mm 6 m/s 757 mmHg 72%
    17:00 +14°C° 0 mm 6 m/s 757 mmHg 74%
    18:00 +13°C° 0 mm 6 m/s 757 mmHg 76%
    19:00 +11°C° 0 mm 6 m/s 757 mmHg 78%
    20:00 +11°C° 0 mm 6 m/s 757 mmHg 81%
    21:00 +10°C° 0 mm 6 m/s 757 mmHg 83%
    22:00 +9°C° 0 mm 6 m/s 757 mmHg 86%
    23:00 +9°C° 0 mm 6 m/s 757 mmHg 88%

    Poimâine, 26 Mai, Duminică

    Timp Temperatura Precipitaţii Vânt Presiune Umiditate
    00:00 +9°C° 0 mm 6 m/s 757 mmHg 89%
    01:00 +8°C° 0 mm 6 m/s 757 mmHg 91%
    02:00 +8°C° 0 mm 6 m/s 756 mmHg 92%
    03:00 +8°C° 0 mm 6 m/s 756 mmHg 92%
    04:00 +8°C° 0 mm 7 m/s 756 mmHg 93%
    05:00 +9°C° 0 mm 7 m/s 756 mmHg 89%
    06:00 +9°C° 0 mm 8 m/s 756 mmHg 85%
    07:00 +10°C° 0 mm 8 m/s 756 mmHg 80%
    08:00 +10°C° 0.1 mm 9 m/s 755 mmHg 79%
    09:00 +10°C° 0.1 mm 9 m/s 755 mmHg 78%
    10:00 +10°C° 0.1 mm 9 m/s 755 mmHg 77%
    11:00 +11°C° 0.1 mm 9 m/s 755 mmHg 75%
    12:00 +11°C° 0.1 mm 9 m/s 755 mmHg 74%
    13:00 +11°C° 0.1 mm 9 m/s 755 mmHg 73%
    14:00 +11°C° 0 mm 9 m/s 755 mmHg 73%
    15:00 +12°C° 0 mm 8 m/s 755 mmHg 74%
    16:00 +12°C° 0 mm 8 m/s 755 mmHg 74%
    17:00 +12°C° 0 mm 7 m/s 755 mmHg 76%
    18:00 +11°C° 0 mm 7 m/s 755 mmHg 78%
    19:00 +11°C° 0 mm 6 m/s 755 mmHg 80%
    20:00 +12°C° 0 mm 5 m/s 755 mmHg 84%
    21:00 +10°C° 0 mm 5 m/s 755 mmHg 88%
    22:00 +10°C° 0 mm 4 m/s 755 mmHg 91%
    23:00 +10°C° 0.1 mm 5 m/s 754 mmHg 90%

    27 Mai, Luni

    Timp Temperatura Precipitaţii Vânt Presiune Umiditate
    00:00 +10°C° 0.1 mm 5 m/s 754 mmHg 89%
    01:00 +12°C° 0.1 mm 5 m/s 754 mmHg 88%
    02:00 +11°C° 0.7 mm 6 m/s 753 mmHg 88%
    03:00 +12°C° 0.7 mm 7 m/s 753 mmHg 88%
    04:00 +12°C° 0.7 mm 7 m/s 752 mmHg 88%
    05:00 +14°C° 0.4 mm 7 m/s 752 mmHg 88%
    06:00 +14°C° 0.4 mm 7 m/s 752 mmHg 89%
    07:00 +14°C° 0.4 mm 7 m/s 751 mmHg 90%
    08:00 +14°C° 1.7 mm 7 m/s 752 mmHg 91%
    09:00 +14°C° 1.7 mm 7 m/s 752 mmHg 93%
    10:00 +14°C° 1.7 mm 7 m/s 752 mmHg 94%
    11:00 +14°C° 0.1 mm 7 m/s 752 mmHg 92%
    12:00 +15°C° 0.1 mm 6 m/s 752 mmHg 89%
    13:00 +15°C° 0.1 mm 6 m/s 752 mmHg 87%
    14:00 +15°C° 0.1 mm 6 m/s 753 mmHg 84%
    15:00 +15°C° 0.1 mm 6 m/s 753 mmHg 81%
    16:00 +15°C° 0.1 mm 6 m/s 753 mmHg 78%
    17:00 +14°C° 0 mm 6 m/s 753 mmHg 79%
    18:00 +13°C° 0 mm 5 m/s 754 mmHg 81%
    19:00 +13°C° 0 mm 5 m/s 754 mmHg 82%
    20:00 +12°C° 0 mm 5 m/s 754 mmHg 86%
    21:00 +10°C° 0 mm 4 m/s 755 mmHg 91%
    22:00 +9°C° 0 mm 3 m/s 755 mmHg 95%
    23:00 +9°C° 0 mm 3 m/s 755 mmHg 96%

    28 Mai, Marţi

    Timp Temperatura Precipitaţii Vânt Presiune Umiditate
    00:00 +9°C° 0 mm 3 m/s 755 mmHg 96%
    01:00 +8°C° 0 mm 3 m/s 756 mmHg 96%
    02:00 +8°C° 0 mm 3 m/s 756 mmHg 96%
    03:00 +8°C° 0 mm 3 m/s 756 mmHg 96%
    04:00 +8°C° 0 mm 2 m/s 756 mmHg 96%
    05:00 +9°C° 0 mm 2 m/s 756 mmHg 90%
    06:00 +12°C° 0 mm 2 m/s 756 mmHg 85%
    07:00 +13°C° 0 mm 1 m/s 756 mmHg 80%
    08:00 +15°C° 0 mm 1 m/s 756 mmHg 74%
    09:00 +16°C° 0 mm 1 m/s 756 mmHg 68%
    10:00 +18°C° 0 mm 1 m/s 756 mmHg 63%
    11:00 +17°C° 0 mm 2 m/s 756 mmHg 63%
    12:00 +17°C° 0 mm 2 m/s 756 mmHg 63%
    13:00 +17°C° 0 mm 3 m/s 756 mmHg 63%
    14:00 +16°C° 0 mm 3 m/s 756 mmHg 66%
    15:00 +16°C° 0 mm 3 m/s 756 mmHg 69%
    16:00 +14°C° 0 mm 3 m/s 756 mmHg 72%
    17:00 +14°C° 0 mm 3 m/s 756 mmHg 75%
    18:00 +14°C° 0 mm 3 m/s 756 mmHg 78%
    19:00 +14°C° 0 mm 3 m/s 756 mmHg 82%
    20:00 +14°C° 0 mm 2 m/s 756 mmHg 85%
    21:00 +13°C° 0 mm 2 m/s 756 mmHg 89%
    22:00 +12°C° 0 mm 1 m/s 756 mmHg 92%
    23:00 +12°C° 0 mm 1 m/s 756 mmHg 92%

    29 Mai, Miercuri

    Timp Temperatura Precipitaţii Vânt Presiune Umiditate
    00:00 +11°C° 0 mm 1 m/s 756 mmHg 92%
    01:00 +11°C° 0 mm 1 m/s 756 mmHg 92%
    02:00 +11°C° 0 mm 1 m/s 756 mmHg 91%
    03:00 +11°C° 0 mm 1 m/s 756 mmHg 90%
    04:00 +11°C° 0 mm 1 m/s 756 mmHg 90%
    05:00 +12°C° 0 mm 1 m/s 757 mmHg 85%
    06:00 +13°C° 0 mm 1 m/s 757 mmHg 80%
    07:00 +14°C° 0 mm 2 m/s 757 mmHg 75%
    08:00 +15°C° 0 mm 2 m/s 757 mmHg 71%
    09:00 +16°C° 0 mm 3 m/s 758 mmHg 66%
    10:00 +17°C° 0 mm 4 m/s 758 mmHg 62%
    11:00 +15°C° 0 mm 5 m/s 758 mmHg 65%
    12:00 +15°C° 0 mm 5 m/s 758 mmHg 68%
    13:00 +14°C° 0 mm 5 m/s 758 mmHg 71%
    14:00 +14°C° 0 mm 5 m/s 759 mmHg 69%
    15:00 +13°C° 0 mm 5 m/s 759 mmHg 67%
    16:00 +13°C° 0 mm 5 m/s 759 mmHg 66%
    17:00 +12°C° 0 mm 5 m/s 759 mmHg 69%
    18:00 +12°C° 0 mm 5 m/s 759 mmHg 71%
    19:00 +10°C° 0 mm 5 m/s 760 mmHg 74%
    20:00 +10°C° 0 mm 5 m/s 760 mmHg 76%
    21:00 +9°C° 0 mm 5 m/s 761 mmHg 79%
    22:00 +9°C° 0 mm 5 m/s 761 mmHg 81%
    23:00 +9°C° 0 mm 5 m/s 761 mmHg 83%
    Arată mai mult